Regional Weather Roundup
Issued by NWS Upton, NY

Current Version | Previous Version | Graphics & Text | Print | Product List | Glossary Off
Versions: 1 2 3 4 5 6 7 8 9 10 11 12 13 14 15 16 17 18 19 20 21 22 23 24 25 26 27 28 29 30 31 32 33 34 35 36 37 38 39 40 41 42 43 44 45 46 47 48 49

000
ASUS41 KOKX 120705
RWROKX
REGIONAL WEATHER ROUNDUP
NATIONAL WEATHER SERVICE NEW YORK NY
300 AM EDT SAT JUL 12 2014

NOTE: "FAIR" INDICATES FEW OR NO CLOUDS BELOW 12,000 FEET WITH NO
SIGNIFICANT WEATHER AND/OR OBSTRUCTIONS TO VISIBILITY.

NYZ071-072-176-178-NJZ106-104-120800-
NEW YORK CITY METRO AREA


CITY           SKY/WX    TMP DP  RH WIND       PRES   REMARKS
CENTRAL PARK   MOCLDY    72  61  68 CALM      30.24F
LAGUARDIA APRT PTCLDY    72  64  76 CALM      30.21F
KENNEDY INTL   MOCLDY    66  64  94 CALM      30.23F
NEWARK/LIBERTY PTCLDY    71  65  81 CALM      30.22S
BRNX BOT. GARD   N/A     68  63  83 E1        30.22F
TETERBORO      PTCLDY    70  63  78 CALM      30.21F
$$

NYZ177-179-078>081-120800-
LONG ISLAND NEW YORK

CITY           SKY/WX    TMP DP  RH WIND       PRES   REMARKS
FARMINGDALE    CLEAR     67  65  93 CALM      30.23S
ISLIP          CLEAR     64  59  83 CALM      30.21F
SHIRLEY        CLEAR     60  58  92 CALM      30.23F
WESTHAMPTON    PTCLDY    55  53  93 CALM      30.25S
MONTAUK POINT    N/A     62  58  86 CALM      30.24F
$$

NYZ052-065-067-120800-
HUDSON VALLEY

CITY           SKY/WX    TMP DP  RH WIND       PRES   REMARKS
WHITE PLAINS   CLEAR     65  62  90 CALM      30.22F
NEWBURGH       NOT AVBL
MONTGOMERY     CLEAR     61  60  97 CALM      30.22F
POUGHKEEPSIE   CLEAR     63  60  90 CALM      30.21F
ALBANY         PTCLDY    59  55  87 CALM      30.22S
$$

NJZ001-105-106-008-010-013-015-019>022-104-120800-
NEW JERSEY

CITY           SKY/WX    TMP DP  RH WIND       PRES   REMARKS
NEWARK/LIBERTY PTCLDY    71  65  81 CALM      30.22S
TETERBORO      PTCLDY    70  63  78 CALM      30.21F
CALDWELL       CLEAR     65  63  93 CALM      30.23F
MORRISTOWN     CLEAR     64  61  88 CALM      30.23S FOG
SOMERVILLE     CLEAR     65  62  90 CALM      30.20F
LINDEN         FAIR      72  65  81 CALM      30.24S
SUSSEX         PTCLDY    63  60  90 CALM      30.23F
ANDOVER          N/A     62  61  96 CALM      30.24S
TRENTON        CLEAR     70  62  76 CALM      30.22S
MILLVILLE      PTCLDY    65  64  97 CALM      30.22F FOG
ATLANTIC CITY  MOCLDY    65  64  97 SE3       30.23S FOG
WRIGHTSTOWN    PTCLDY    67  64  90 S2        30.20F
TOMS RIVER     CLOUDY    64  61  88 CALM      30.23S
BELMAR         MOCLDY    66  63  88 CALM      30.22F
$$

PAZ047>061-062-071-120800-
EASTERN PENNSYLVANIA

CITY           SKY/WX    TMP DP  RH WIND       PRES   REMARKS
PHILADELPHIA   PTCLDY    73  61  65 S3        30.22F
ALLENTOWN      CLEAR     66  63  90 CALM      30.22S
SCRANTON       CLEAR     65  58  78 E5        30.22F
$$

CTZ002-004>006-009-010-012-RIZ004-006-007-MAZ004-011-015-120800-
SOUTHERN NEW ENGLAND
 IN CT

CITY           SKY/WX    TMP DP  RH WIND       PRES   REMARKS
BRADLEY INTL   CLEAR     64  56  75 W6        30.21F
HARTFORD       PTCLDY    66  61  84 S7        30.21F
DANBURY        CLEAR     62  58  86 CALM      30.24F
WTRBRY/OXFORD  CLEAR     61  55  82 CALM      30.25F
BRIDGEPORT     CLEAR     69  65  86 CALM      30.22F
MERIDEN        CLEAR     63  60  90 CALM      30.23S
NEW HAVEN      PTCLDY    67  62  84 CALM      30.22F
CHESTER        FAIR      63  61  94 CALM      30.24S
GROTON         CLEAR     60  60 100 CALM      30.22F
WILLIMANTIC    CLEAR     60  57  89 CALM      30.23S

 IN RI

CITY           SKY/WX    TMP DP  RH WIND       PRES   REMARKS
PROVIDENCE     CLEAR     63  56  78 W3        30.23F
BLOCK ISLAND   CLEAR     63  59  88 CALM      30.23F
WESTERLY       CLEAR     60  58  92 CALM      30.23F

 IN MA

CITY           SKY/WX    TMP DP  RH WIND       PRES   REMARKS
BOSTON         PTCLDY    64  58  80 S5        30.21F
WORCESTER      CLEAR     63  54  72 W8        30.24S
WESTFIELD      NOT AVBL
PROVINCETOWN   CLEAR     61  59  94 S3        30.22F
NANTUCKET      CLEAR     58  56  93 CALM      30.22S
$$

ANZ330-335-338-340-345-350-353-355-120800-
COASTAL MARINE OBSERVATIONS


STATION/POSITION TIME  SKY/WX   TEMP    WIND        PRES    VSBY  WAVE
                                AIR SEA DIR/SP/G                  HT/PER
                 (UTC)          (F)     (DEG/KT/KT) (MB)    (MI)  (FT/S)
NY HARB ENTRANCE NOT AVBL
4S FIRE IS       0600               70                N/A           2/ 6
23SW MTP         0700            65 66              1023.0          2/ 7
HUDSON CANYON    0700            69 70   20/  4/  4 1023.1          2/ 7
EXECUTION ROCKS  0700            68 69  140/  2/  4   N/A
WESTERN LI SOUND 0700            69     160/  4/  4   N/A           0
CENTRAL LI SOUND 0600            70 71  200/  4/  4   N/A           1
EASTERN LI SOUND 0600            64 62   CALM  /  2   N/A
ROBBINS REEF     0700            66     180/  5/  5   N/A
$$


>>>>>>>>>>>>>>>>>>>>>>>>>>>> KEY <<<<<<<<<<<<<<<<<<<<<<<<<<<
>                                                          <
>     SKY/WX - SKY CONDITION/PRESENT WEATHER               <
>     TMP    - TEMPERATURE IN FAHRENHEIT                   <
>     DP     - DEWPOINT IN FAHRENHEIT                      <
>     RH     - RELATIVE HUMIDITY IN PERCENT                <
>     WIND   - DIRECTION AND SPEED IN MPH                  <
>     PRES   - MEAN SEA LEVEL PRESSURE IN INCHES OF HG     <
>     WCI    - WIND CHILL INDEX                            <
>     VSB    - VISIBILITY IN MILES                         <
>     HX     - HEAT INDEX                                  <
>     TC     - TEMPERATURE IN CELSIUS                      <
>     VRB    - VARIABLE WIND DIRECTION                     <
>                                                          <
>>>>>>>>>>>>>>>>>>>>>>>>>>>> KEY <<<<<<<<<<<<<<<<<<<<<<<<<<<




USA.gov is the U.S. government's official web portal to all federal, state and local government web resources and services.